Location: Walton
(43.6794°N, 81.3017°W)
Time: 00:44:15
(UTC+00:00)

Cosmos 158 Rocket - Pass Details

Date: 09 December 2025
Orbit: 695 x 785 km, 74.0° (Epoch: 19 January)

Event Time Altitude Azimuth Distance (km) Brightness Sun altitude
Rises 11:23:13 0° 194° (SSW) 3,258 7.3 -14.6°
Reaches altitude 10° 11:25:37 10° 192° (SSW) 2,330 6.6 -14.2°
Maximum altitude 11:30:54 75° 108° (ESE) 804 4.2 -13.3°
Drops below altitude 10° 11:36:09 10° 24° (NNE) 2,307 6.5 -12.4°
Sets 11:38:30 0° 23° (NNE) 3,224 7.3 -12.0°
